Simultaneous Nadir Overpasses (SNOs) Predictions

Prediction of SNOs between FY3D and LANDSAT-8 Satellite Orbit:

Table of predicted SNOs for the next 14.0 days since TLE Epoch: 2/25/2023
Index Date (FY3D) Time (FY3D) Lat,Lon (FY3D) SZA (FY3D ) Date (LANDSAT-8) Time (LANDSAT-8) Lat,Lon (LANDSAT-8) SZA (LANDSAT-8 ) Distance(km) Time Diff (sec)
1 02/26/2023 04:16:06 72.70, 116.29 81.46 02/26/2023 04:16:58 72.69, 116.21 81.44 3.01 52
2 02/26/2023 05:06:49 -72.60, -76.20 98.66 02/26/2023 05:06:27 -72.61, -76.29 98.65 3.23 22
3 02/28/2023 19:43:19 -72.71, 64.50 99.54 02/28/2023 19:44:02 -72.69, 64.44 99.56 2.95 43
4 02/28/2023 20:34:04 72.62,-128.01 80.36 02/28/2023 20:33:29 72.60,-128.08 80.35 3.06 35
5 03/03/2023 11:10:32 72.68, 12.78 79.43 03/03/2023 11:11:02 72.70, 12.70 79.45 3.23 30
6 03/03/2023 12:01:16 -72.64,-179.82 100.63 03/03/2023 12:00:31 -72.63,-179.79 100.64 1.30 45
7 03/06/2023 02:37:45 -72.71, -39.06 101.56 03/06/2023 02:38:05 -72.71, -39.05 101.57 0.86 20
8 03/06/2023 03:28:30 72.62, 128.44 78.34 03/06/2023 03:27:32 72.61, 128.41 78.33 1.40 58
9 03/08/2023 17:14:23 -73.25, 100.70 102.03 03/08/2023 17:15:32 -73.12, 102.36 102.18 55.12 69
10 03/08/2023 18:04:59 72.71, -90.82 77.41 03/08/2023 18:05:05 72.71, -90.80 77.41 0.66 6



Historial Predications of SNOs between FY3D and LANDSAT-8
